Retour au catalogue

FALCON 9 R/B

ActifHEO
NORAD 62260·ROCKET BODY·🇺🇸 United States

Lancé Dec 5, 2024 depuis Cape Canaveral Space Force Station

Loading…

Prochains Passages (prochaines 24 heures)

TLE

FraisSource: Space-Track

Époque: Sep 14, 2026, 06:08 UTC

1 62260U 24234B   26257.25610592  .00024948  00000-0  77848-3 0  9997
2 62260  27.2412   5.9463 5757726 296.7122  16.4185  4.49221782 26429

Suivez FALCON 9 R/B en temps réel avec AllMySat

Download on the App Store